Wind_Speed
13 13 12 10 12 16 8 1 2 3 2 0 2 4 4 1 0 2 2 1 0 0 1 1 1 2 2 3 4 6 7 7 7 7 7 7 7 7 7 7 7 8 8 9 9 9 9 9 9
10 10 9 8 11 13 3 5 5 4 2 1 1 2 1 2 2 2 2 1 2 2 3 2 3 3 3 4 5 6 7 7 7 7 7 7 7 7 7 7 7 8 8 8 8 9 9 8 8
7 7 6 6 7 7 3 6 6 5 3 4 4 3 2 2 2 2 2 2 3 4 5 5 5 5 5 5 6 7 7 8 8 8 8 8 9 9 9 8 9 9 9 8 8 8 9 9 8
5 6 5 7 5 3 3 7 4 4 5 5 6 4 5 4 4 4 4 3 4 6 7 7 7 7 7 7 8 8 9 9 9 10 10 10 10 11 11 10 10 10 10 10 10 10 10 10 10
4 5 3 6 6 3 5 8 5 6 6 6 8 6 6 6 5 5 5 5 5 6 7 7 8 8 8 9 9 10 10 11 12 12 13 13 13 13 12 12 12 12 12 12 12 11 11 11 11
7 6 1 10 10 4 6 8 8 8 5 6 9 7 7 7 7 6 6 7 7 7 8 8 8 9 10 10 11 12 13 14 15 16 16 16 15 15 14 14 14 14 14 14 14 13 13 13 13
10 9 5 7 11 8 8 9 9 9 5 6 9 11 9 8 7 7 8 9 9 10 10 10 11 11 12 13 14 15 16 17 18 19 19 18 18 18 17 17 17 17 16 16 16 16 16 15 15
12 11 7 4 12 12 11 10 11 11 12 9 9 14 10 8 8 9 10 11 12 12 13 13 14 14 15 16 17 18 19 20 21 21 21 21 21 21 20 20 20 20 19 19 19 19 19 18 18
14 13 7 5 12 13 12 10 11 13 15 13 14 17 14 12 11 12 12 13 15 15 15 15 16 16 17 18 19 19 20 21 22 22 23 23 23 23 23 23 24 23 23 22 22 22 22 22 22
16 15 10 11 15 12 13 11 11 10 13 16 16 19 15 13 14 14 14 15 17 18 18 18 18 19 19 20 21 21 22 22 23 24 24 25 25 25 25 25 26 26 26 26 26 25 26 26 26
19 19 18 18 19 21 18 14 13 11 14 20 21 19 13 13 16 17 17 18 19 20 21 22 22 22 23 23 23 24 23 24 24 25 26 26 26 27 27 26 27 28 28 28 28 28 28 29 29
22 24 24 25 24 24 23 20 17 14 17 23 24 23 20 19 20 21 21 21 22 24 25 25 26 26 26 26 27 26 26 26 26 26 26 27 27 27 27 28 28 28 28 29 29 29 29 30 31
24 25 25 26 26 25 24 22 21 18 18 24 26 28 26 25 24 24 25 25 25 27 28 29 29 29 28 29 29 29 28 28 28 27 27 28 28 28 28 28 28 29 29 29 29 30 30 30 32
23 25 26 27 26 25 24 24 22 21 22 26 28 28 28 28 28 28 28 27 28 30 31 32 32 31 31 30 30 30 29 28 28 28 28 28 28 29 29 29 28 27 28 28 28 28 29 30 30
22 24 25 25 24 22 24 25 21 21 25 29 30 29 29 30 31 33 33 32 33 34 35 35 34 33 32 32 32 31 30 28 28 29 29 28 28 28 28 27 26 25 26 26 26 27 28 29 29
20 21 22 20 20 21 24 24 20 24 29 31 31 30 30 32 33 35 37 38 37 38 37 37 36 35 34 33 33 31 30 29 28 28 28 27 27 27 26 25 24 24 24 24 24 25 26 27 28
12 15 15 13 16 21 23 22 21 28 31 31 29 30 33 35 35 37 39 39 40 41 39 37 37 37 36 35 33 31 29 28 28 28 27 27 26 25 24 23 23 22 22 22 22 22 23 24 26
8 10 12 11 16 25 24 20 21 28 29 30 32 34 36 38 37 37 39 40 40 40 38 37 37 38 38 36 35 33 30 29 29 28 27 26 25 24 24 23 22 22 21 21 20 21 22 23 25
16 16 14 13 19 26 26 22 24 26 30 33 35 36 38 38 37 38 39 37 38 39 41 39 38 38 38 37 36 34 31 29 29 27 25 25 25 24 23 22 21 21 21 21 21 22 23 24 26
8 10 12 15 19 23 27 26 24 26 30 34 36 37 38 37 37 37 36 36 38 39 41 39 38 38 38 36 35 33 31 30 28 27 25 24 24 23 22 22 22 21 21 22 22 23 23 24 26
6 9 13 17 20 21 21 20 18 20 27 32 31 32 32 33 32 33 35 37 37 38 38 38 38 39 39 38 36 33 32 31 30 27 25 25 24 24 23 23 23 23 23 23 23 23 24 25 27
8 13 16 17 18 18 17 19 19 23 29 32 30 29 27 27 30 33 35 34 36 37 37 39 40 40 40 39 37 34 33 32 31 29 27 26 26 25 25 25 25 25 25 25 25 25 25 26 27
11 13 13 12 12 13 13 17 21 26 29 30 27 27 29 28 29 30 32 34 36 37 38 38 37 38 38 37 37 35 34 32 31 30 29 29 29 28 28 29 29 29 28 28 28 28 28 28 28
11 9 7 11 15 18 18 20 20 24 25 27 29 30 31 30 29 30 31 32 34 35 36 36 36 37 38 38 38 37 36 34 33 33 32 32 32 32 32 32 32 33 32 32 31 31 30 30 30
12 10 10 14 20 24 17 11 17 20 22 26 29 30 31 32 32 32 32 33 34 36 37 38 39 39 41 41 41 41 40 39 38 37 36 36 36 36 36 36 36 36 36 35 34 34 33 32 31
9 8 10 15 17 20 22 19 23 24 24 27 29 30 32 33 35 36 36 37 38 39 41 42 43 44 45 45 46 46 46 45 44 43 42 41 41 40 40 40 39 39 38 38 37 35 34 33 32
11 9 10 13 13 13 15 25 27 28 30 28 29 32 36 38 40 41 42 43 44 45 46 47 49 50 51 51 52 52 52 52 52 51 50 48 47 45 44 43 42 41 40 40 39 37 35 34 33
14 14 13 14 16 16 15 26 32 32 34 35 36 38 40 42 44 45 47 48 49 51 52 53 54 55 56 56 57 58 58 58 58 57 57 56 54 52 50 48 45 43 42 41 40 38 36 35 34
14 15 16 18 19 20 21 27 31 35 38 40 40 42 44 46 48 50 52 53 54 55 56 57 58 58 59 60 61 61 62 62 63 62 62 61 60 57 55 53 51 47 45 43 42 40 38 36 34
13 17 19 21 22 23 25 32 33 36 39 41 44 47 49 51 53 55 56 57 57 58 59 60 61 62 62 63 64 64 65 66 66 66 66 65 64 62 61 58 55 52 49 47 44 41 39 37 35
Wind_Direction
86 82 87 93 90 79 79 289 278 309 326 107 198 216 215 218 310 173 191 204 242 335 37 15 356 349 351 348 345 345 346 350 354 354 354 354 352 353 355 358 3 7 12 15 16 15 14 13 12
98 94 96 91 86 101 93 316 333 346 342 305 242 241 201 183 183 179 216 255 304 311 312 312 310 308 313 319 321 326 329 332 335 337 337 335 334 333 333 336 340 343 349 357 2 3 2 3 2
115 108 96 69 60 81 65 329 353 339 329 308 281 279 266 248 225 231 256 280 311 315 312 308 305 305 306 310 311 313 315 317 320 323 325 325 324 323 321 320 323 326 329 335 341 345 347 347 347
139 119 101 50 8 33 322 308 344 326 317 298 283 273 271 270 266 271 274 289 307 313 312 310 309 310 311 311 311 311 312 313 315 317 319 320 319 318 316 313 313 315 316 320 324 328 331 333 333
188 155 86 339 275 258 278 288 289 277 291 294 289 283 276 274 279 284 286 295 306 311 312 314 316 316 316 314 313 314 314 314 313 315 316 315 315 313 312 309 308 308 308 310 313 316 318 320 322
219 194 105 294 282 247 269 276 270 266 285 295 287 286 283 284 287 293 296 301 306 309 309 310 313 315 315 313 311 311 311 312 312 313 313 312 310 308 306 304 304 304 303 303 305 307 309 312 313
236 227 200 285 295 279 259 273 274 282 280 269 280 286 281 284 292 297 302 306 307 308 307 306 306 306 307 306 305 305 305 306 307 308 307 307 306 304 302 299 298 298 297 298 299 300 301 303 303
242 235 218 273 287 275 269 270 268 273 266 264 278 276 275 285 293 299 304 306 306 307 308 308 307 306 304 304 303 304 303 303 304 303 302 302 301 300 298 295 293 292 291 291 292 293 294 295 296
242 235 220 266 269 262 259 257 267 269 274 286 280 276 280 285 291 297 303 307 308 309 310 311 313 312 310 309 307 306 305 303 302 301 299 298 297 296 295 294 291 289 288 288 287 287 287 288 288
241 230 215 247 252 247 257 256 253 267 279 279 264 259 266 283 293 298 303 308 310 311 312 315 317 316 316 314 311 309 306 304 301 298 297 295 294 292 291 290 290 289 287 285 285 284 283 282 282
241 231 219 228 241 238 246 260 263 261 267 268 261 253 260 282 294 297 300 304 308 310 313 315 318 317 316 313 311 307 305 302 299 296 294 293 291 289 288 287 286 287 287 286 284 283 282 282 280
247 240 234 238 244 248 250 250 249 246 257 268 271 277 288 291 292 296 297 300 305 308 310 312 315 315 314 312 310 307 304 301 298 296 295 294 292 291 289 288 287 285 285 284 283 283 283 283 282
250 249 245 248 251 254 254 250 248 245 249 267 274 278 285 288 290 292 293 296 301 304 307 308 310 310 310 309 307 305 304 302 299 297 295 293 292 291 290 288 288 288 288 286 284 283 283 283 282
257 253 249 249 252 255 257 255 252 252 253 258 266 272 279 283 286 289 288 290 297 300 302 303 304 305 305 304 305 304 301 301 299 297 294 292 291 290 289 287 287 287 287 288 288 288 287 287 288
264 263 261 257 256 258 260 258 257 258 255 256 263 268 273 277 281 286 287 289 294 295 296 297 297 299 299 300 301 300 300 299 296 294 293 291 290 289 288 288 287 287 287 288 290 290 289 288 288
270 270 267 263 258 256 256 259 260 255 253 257 260 266 270 274 278 281 284 287 289 291 291 291 292 293 294 296 297 298 297 295 295 293 292 290 290 288 286 285 286 287 288 290 291 293 294 293 291
297 297 292 277 258 249 253 258 256 255 255 259 264 269 273 275 275 277 281 283 284 285 285 284 286 289 290 293 295 295 294 295 295 293 290 288 287 286 284 284 285 286 287 289 292 295 298 298 298
260 258 269 266 247 245 250 252 254 262 262 262 267 273 275 274 275 278 280 279 279 279 280 280 282 285 287 289 292 293 293 293 293 292 290 286 284 282 281 281 283 285 287 290 293 298 302 303 303
237 221 220 229 238 249 254 255 252 260 268 268 268 273 275 277 276 281 278 272 277 280 279 279 279 283 285 286 289 291 290 291 291 289 285 282 280 279 279 280 282 285 286 289 292 297 302 305 307
260 254 248 247 251 257 265 268 264 261 266 269 271 274 278 279 279 278 275 274 276 278 276 274 279 282 282 286 287 289 290 291 290 286 281 278 275 275 276 278 281 283 286 288 291 296 300 304 307
271 255 251 249 249 258 273 283 280 268 265 270 276 275 276 280 279 279 278 276 274 274 275 276 283 284 287 288 288 287 288 289 287 283 278 275 273 273 273 276 278 281 284 287 290 294 298 302 304
274 263 258 263 265 266 269 273 273 265 264 270 277 277 282 284 282 280 277 276 275 275 275 279 283 285 286 289 287 285 287 287 285 280 275 272 271 271 273 274 277 279 282 285 288 290 295 299 302
281 276 276 278 275 270 264 263 262 264 268 274 280 294 297 293 285 284 280 278 279 279 282 282 282 283 286 287 287 287 288 288 284 279 275 274 273 272 273 275 277 278 280 282 285 288 291 295 299
303 301 288 293 286 273 254 241 249 266 278 286 291 296 297 295 290 286 283 282 283 284 284 285 285 284 286 287 288 287 286 285 282 279 276 275 275 273 273 274 276 277 279 280 282 285 288 291 295
302 305 306 308 312 315 313 269 260 271 284 291 292 295 296 295 293 291 288 286 285 285 285 285 286 286 285 286 286 285 284 283 281 279 277 276 275 275 275 275 276 277 277 278 280 282 284 286 291
323 317 314 309 308 315 320 306 288 285 282 285 288 294 297 297 296 294 291 289 288 286 285 284 284 283 283 282 282 281 281 281 280 279 277 276 274 275 275 275 276 276 276 276 277 278 281 283 287
337 321 302 298 302 304 303 293 286 284 285 282 287 294 298 299 297 295 293 291 288 286 285 283 282 281 280 279 279 278 278 278 278 278 277 275 273 272 272 272 272 272 273 273 274 275 277 279 283
320 327 323 316 310 302 299 296 297 301 300 299 297 298 299 298 296 294 292 290 288 286 284 282 281 280 279 278 277 276 276 275 275 275 274 274 273 271 269 268 267 267 268 269 271 271 273 275 278
308 314 311 310 307 303 300 293 293 296 296 298 297 298 298 296 295 293 292 290 288 287 285 283 281 279 278 277 276 275 274 273 273 272 272 271 271 270 269 267 266 266 265 265 266 267 269 270 273
308 317 318 315 311 308 304 295 296 295 295 297 297 297 296 295 294 293 292 291 290 288 286 285 282 280 279 277 275 274 273 272 271 270 270 269 269 268 267 267 265 265 264 263 263 264 265 266 269
Height
5924 5924 5924 5924 5924 5923 5925 5926 5923 5922 5921 5920 5920 5919 5918 5919 5920 5922 5919 5919 5919 5919 5919 5919 5918 5918 5918 5917 5917 5916 5915 5914 5913 5913 5912 5911 5910 5909 5908 5907 5906 5905 5903 5902 5901 5900 5899 5899 5898
5925 5926 5926 5925 5923 5923 5926 5925 5923 5922 5922 5921 5920 5919 5919 5919 5919 5919 5919 5919 5919 5919 5919 5919 5918 5918 5917 5917 5916 5916 5915 5914 5913 5912 5912 5911 5910 5909 5908 5907 5906 5905 5904 5903 5902 5901 5900 5899 5898
5925 5926 5927 5925 5924 5924 5925 5926 5924 5923 5922 5921 5920 5921 5920 5920 5920 5919 5919 5919 5919 5918 5918 5918 5918 5917 5917 5916 5916 5915 5914 5914 5913 5912 5911 5910 5910 5909 5907 5906 5905 5904 5903 5902 5901 5901 5900 5899 5898
5926 5927 5928 5927 5927 5926 5926 5926 5925 5924 5923 5921 5920 5921 5920 5920 5919 5919 5918 5918 5918 5918 5917 5917 5917 5916 5916 5915 5915 5914 5913 5913 5912 5911 5911 5910 5909 5908 5907 5906 5905 5904 5903 5902 5901 5900 5899 5899 5898
5926 5927 5927 5928 5928 5926 5926 5926 5924 5923 5923 5921 5920 5920 5919 5919 5919 5918 5917 5917 5917 5917 5916 5916 5915 5915 5915 5914 5913 5913 5912 5912 5911 5910 5909 5908 5907 5906 5905 5904 5903 5902 5902 5901 5900 5899 5899 5898 5897
5925 5926 5927 5928 5926 5924 5925 5925 5923 5922 5921 5921 5919 5919 5918 5918 5918 5917 5916 5916 5916 5915 5915 5915 5914 5914 5913 5913 5912 5912 5911 5910 5909 5909 5907 5906 5905 5904 5903 5902 5901 5901 5900 5899 5899 5898 5897 5897 5896
5924 5925 5925 5927 5925 5924 5923 5923 5922 5920 5919 5920 5918 5917 5917 5917 5916 5916 5915 5914 5914 5914 5914 5913 5913 5912 5912 5911 5910 5910 5909 5908 5907 5906 5905 5904 5903 5902 5901 5900 5899 5898 5897 5897 5896 5896 5895 5894 5894
5921 5923 5924 5927 5926 5923 5921 5922 5921 5920 5918 5917 5918 5915 5915 5915 5915 5914 5913 5912 5912 5912 5912 5911 5911 5910 5909 5909 5908 5907 5906 5905 5904 5903 5902 5901 5900 5899 5898 5896 5895 5894 5894 5893 5893 5892 5892 5891 5891
5918 5921 5923 5926 5924 5921 5920 5921 5920 5919 5917 5917 5916 5913 5913 5912 5912 5912 5911 5910 5910 5909 5909 5908 5908 5907 5906 5906 5905 5904 5903 5902 5901 5899 5898 5897 5896 5895 5894 5893 5891 5891 5890 5889 5889 5888 5888 5887 5887
5914 5916 5920 5921 5920 5918 5917 5918 5918 5918 5917 5915 5913 5909 5909 5910 5910 5909 5909 5908 5907 5906 5906 5905 5905 5904 5903 5902 5901 5900 5899 5897 5896 5895 5894 5892 5891 5890 5889 5888 5886 5885 5885 5884 5883 5883 5882 5882 5882
5909 5912 5914 5914 5914 5915 5915 5917 5917 5917 5916 5911 5907 5903 5903 5906 5908 5907 5906 5905 5904 5903 5902 5902 5901 5900 5899 5898 5897 5895 5894 5893 5891 5890 5888 5887 5886 5885 5884 5883 5882 5880 5879 5878 5877 5877 5876 5876 5876
5904 5906 5907 5908 5909 5910 5912 5913 5914 5915 5913 5907 5904 5901 5900 5902 5904 5903 5902 5901 5901 5900 5899 5897 5897 5896 5894 5893 5892 5890 5888 5887 5886 5884 5883 5881 5880 5879 5878 5876 5875 5874 5873 5872 5871 5870 5869 5869 5868
5899 5901 5902 5904 5905 5906 5907 5908 5909 5910 5910 5905 5902 5900 5900 5900 5897 5898 5897 5897 5897 5895 5894 5893 5892 5891 5890 5888 5886 5885 5883 5881 5879 5878 5877 5875 5874 5872 5871 5870 5869 5867 5866 5866 5865 5864 5863 5863 5862
5893 5894 5896 5898 5899 5901 5902 5903 5905 5906 5906 5904 5901 5899 5898 5897 5895 5892 5891 5890 5890 5890 5889 5888 5886 5885 5884 5882 5881 5879 5877 5876 5874 5872 5871 5869 5868 5866 5865 5863 5862 5861 5860 5859 5858 5857 5856 5856 5855
5888 5889 5891 5892 5894 5896 5898 5899 5901 5902 5900 5898 5896 5896 5894 5893 5891 5889 5886 5884 5883 5884 5882 5881 5880 5879 5878 5876 5875 5873 5871 5870 5868 5867 5865 5863 5862 5860 5859 5858 5856 5855 5854 5853 5852 5851 5850 5849 5848
5884 5885 5886 5888 5890 5893 5895 5895 5896 5895 5893 5891 5889 5890 5889 5888 5887 5884 5881 5879 5875 5876 5875 5874 5872 5872 5871 5870 5868 5867 5865 5864 5862 5860 5859 5858 5856 5854 5853 5852 5851 5850 5849 5847 5846 5845 5844 5842 5841
5882 5882 5884 5887 5888 5889 5889 5890 5890 5887 5886 5884 5881 5883 5882 5881 5880 5877 5875 5873 5869 5867 5866 5865 5864 5864 5863 5862 5861 5860 5858 5857 5855 5854 5853 5851 5850 5849 5847 5846 5845 5844 5843 5842 5841 5840 5838 5837 5835
5881 5884 5886 5887 5886 5883 5883 5884 5885 5880 5878 5877 5876 5876 5874 5873 5871 5870 5867 5864 5862 5859 5855 5854 5856 5855 5855 5854 5854 5853 5851 5850 5849 5848 5846 5845 5844 5843 5842 5841 5840 5839 5838 5837 5836 5834 5833 5831 5829
5875 5877 5879 5881 5879 5877 5876 5877 5878 5876 5873 5872 5870 5869 5866 5863 5860 5860 5857 5854 5853 5852 5848 5846 5846 5846 5846 5845 5845 5845 5844 5843 5843 5842 5840 5839 5838 5837 5836 5835 5835 5834 5833 5831 5830 5829 5827 5825 5823
5872 5874 5875 5875 5873 5872 5871 5871 5872 5871 5868 5865 5863 5861 5859 5857 5854 5852 5846 5843 5844 5844 5841 5836 5835 5838 5837 5836 5837 5838 5837 5836 5836 5835 5834 5833 5832 5831 5831 5830 5829 5828 5827 5826 5825 5823 5821 5819 5816
5870 5870 5869 5868 5867 5866 5867 5866 5866 5864 5861 5857 5856 5853 5851 5849 5847 5844 5840 5837 5836 5836 5834 5829 5831 5833 5832 5831 5830 5830 5829 5829 5829 5828 5827 5827 5826 5825 5825 5824 5823 5822 5822 5820 5819 5817 5815 5813 5811
5867 5865 5864 5864 5864 5863 5865 5863 5861 5857 5854 5851 5849 5845 5844 5842 5840 5839 5836 5832 5829 5828 5826 5826 5825 5826 5825 5824 5824 5822 5822 5822 5821 5821 5820 5820 5820 5819 5819 5818 5817 5816 5815 5814 5812 5811 5809 5807 5805
5863 5861 5861 5860 5859 5859 5860 5859 5856 5850 5847 5845 5842 5839 5839 5837 5834 5834 5831 5828 5825 5822 5820 5818 5818 5818 5817 5817 5816 5815 5814 5814 5813 5813 5812 5812 5812 5812 5812 5811 5810 5809 5808 5807 5806 5804 5802 5800 5798
5860 5859 5858 5857 5855 5853 5851 5850 5848 5846 5844 5841 5839 5838 5836 5833 5830 5828 5827 5824 5821 5818 5816 5815 5813 5811 5810 5808 5807 5807 5806 5806 5805 5805 5804 5804 5804 5804 5804 5803 5803 5802 5801 5800 5798 5797 5795 5793 5790
5858 5858 5857 5855 5851 5847 5844 5844 5844 5841 5842 5839 5836 5834 5831 5828 5826 5824 5821 5819 5816 5814 5811 5809 5807 5804 5803 5800 5799 5798 5797 5796 5796 5796 5795 5795 5795 5794 5794 5794 5794 5793 5792 5791 5790 5789 5787 5786 5783
5857 5856 5856 5854 5851 5850 5844 5842 5841 5838 5836 5834 5831 5829 5826 5823 5820 5817 5814 5812 5809 5806 5804 5801 5798 5795 5793 5791 5789 5787 5786 5785 5785 5785 5785 5785 5785 5785 5784 5784 5784 5783 5782 5782 5781 5780 5779 5778 5776
5857 5855 5854 5852 5850 5849 5848 5841 5837 5832 5829 5825 5824 5823 5821 5817 5813 5809 5806 5803 5800 5797 5794 5791 5788 5785 5782 5779 5777 5775 5774 5773 5772 5772 5772 5772 5772 5773 5773 5773 5773 5773 5772 5772 5772 5771 5770 5769 5768
5856 5854 5852 5850 5847 5845 5845 5838 5833 5829 5824 5821 5819 5817 5814 5809 5804 5800 5796 5792 5788 5784 5780 5777 5774 5771 5768 5765 5763 5761 5759 5758 5757 5757 5757 5757 5758 5759 5760 5760 5760 5761 5761 5761 5761 5761 5761 5760 5760
5855 5853 5850 5848 5845 5842 5839 5837 5830 5826 5821 5816 5812 5808 5804 5800 5795 5790 5784 5779 5775 5770 5766 5762 5758 5755 5752 5749 5747 5744 5742 5741 5740 5740 5740 5740 5741 5742 5744 5745 5746 5747 5749 5749 5750 5750 5750 5750 5750
5851 5850 5848 5845 5842 5838 5835 5832 5825 5820 5814 5810 5805 5799 5794 5788 5783 5777 5771 5765 5760 5755 5750 5745 5741 5737 5733 5731 5728 5726 5724 5722 5721 5721 5721 5721 5722 5724 5726 5728 5730 5733 5735 5736 5738 5739 5739 5740 5741